This is the latest recevied weather packets stored in our database for station/object KD4EG. If no packets are shown the sender has not sent any weather packets the latest 10 day(s).
| Time | Temp. | Humidity | Pressure | Rain* | Wind** | Luminosity | Snow |
|---|---|---|---|---|---|---|---|
| 1777537805 | 12.78° C | 84% | 1011.9 hPa | 0 mm | - | 0 W/m² | - |
| 1777537503 | 13.33° C | 84% | 1011.8 hPa | 0 mm | - | 0 W/m² | - |
| 1777537198 | 12.78° C | 84% | 1011.8 hPa | 0 mm | - | 0 W/m² | - |
| 1777536894 | 12.78° C | 85% | 1011.9 hPa | 0 mm | - | 0 W/m² | - |
| 1777536592 | 12.78° C | 85% | 1012.1 hPa | 0 mm | - | 0 W/m² | - |
| 1777536289 | 12.78° C | 87% | 1011.7 hPa | 0 mm | - | 0 W/m² | - |
| 1777535985 | 12.22° C | 87% | 1011.6 hPa | 0 mm | - | 0 W/m² | - |
| 1777535680 | 12.22° C | 88% | 1011.5 hPa | 0 mm | - | 0 W/m² | - |
| 1777535378 | 12.22° C | 88% | 1011.3 hPa | 0 mm | - | 0 W/m² | - |
| 1777535075 | 12.22° C | 88% | 1011.3 hPa | 0 mm | - | 0 W/m² | - |
| 1777534772 | 12.22° C | 88% | 1011.5 hPa | 0 mm | - | 0 W/m² | - |
| 1777534469 | 11.67° C | 91% | 1011.3 hPa | 0 mm | - | 0 W/m² | - |
| 1777534166 | 11.67° C | 92% | 1011.6 hPa | 0 mm | - | 0 W/m² | - |
| 1777533863 | 11.67° C | 92% | 1011.8 hPa | 0 mm | - | 0 W/m² | - |
| 1777533560 | 11.67° C | 93% | 1011.7 hPa | 0 mm | - | 0 W/m² | - |
| 1777533256 | 11.67° C | 92% | 1011.7 hPa | 0 mm | - | 0 W/m² | - |
| 1777532953 | 11.67° C | 91% | 1011.7 hPa | 0 mm | - | 0 W/m² | - |
| 1777532650 | 12.22° C | 89% | 1011.6 hPa | 0 mm | - | 0 W/m² | - |
| 1777532347 | 11.67° C | 89% | 1011.9 hPa | 0 mm | - | 0 W/m² | - |
| 1777532043 | 12.22° C | 89% | 1011.8 hPa | 0 mm | - | 0 W/m² | - |
| 1777531739 | 11.67° C | 89% | 1012.2 hPa | 0 mm | - | 0 W/m² | - |
| 1777531435 | 12.22° C | 89% | 1012.1 hPa | 0 mm | - | 0 W/m² | - |
| 1777531134 | 12.22° C | 88% | 1012.1 hPa | 0 mm | - | 0 W/m² | - |
| 1777530830 | 12.22° C | 88% | 1012.2 hPa | 0 mm | - | 0 W/m² | - |
| 1777530528 | 11.67° C | 90% | 1012 hPa | 0 mm | - | 0 W/m² | - |
* Rain latest hour (hover to see other rain measurements)
** Current wind speed in m/s (hover to see current wind gust speed)